This demonstration page uses our WeatherBlox Daily Observations layout. Learn more.

Left ArrowRight Arrow

34.02893, -84.19858

Hourly Observations for March 1, 2016

Temp ( °F °C ) Dew Point ( °F °C ) Humidity (%) Winds ( mph kmh ) Pressure ( in mb ) Visibility ( mi km ) Precip ( " mm )
12:53 am 00:53 Mostly Clear 48 8.9 44 6.7 86 86 Calm 30.08 1019 10 16 0.00 0.00
1:53 am 01:53 Mostly Cloudy 46 7.8 44 6.7 93 93 Calm 30.07 1018 10 16 0.00 0.00
2:53 am 02:53 Clear 47 8.3 44 6.7 90 90 Calm 30.06 1018 10 16 0.00 0.00
3:53 am 03:53 Mostly Clear 45 7.2 43 6.1 93 93 Calm 30.05 1018 9 14 0.00 0.00
4:53 am 04:53 Partly Cloudy 44 6.7 43 6.1 96 96 Calm 30.05 1018 10 16 0.00 0.00
5:53 am 05:53 Clear 45 7.2 43 6.1 93 93 Calm 30.06 1018 10 16 0.00 0.00
6:53 am 06:53 Cloudy 47 8.3 45 7.2 93 93 Calm 30.07 1018 10 16 0.00 0.00
7:53 am 07:53 Cloudy 50 10 47 8.3 89 89 Calm 30.08 1019 8 13 0.00 0.00
8:53 am 08:53 Cloudy 55 12.8 51 10.6 87 87 SSW 5 7 30.08 1019 8 13 0.00 0.00
9:53 am 09:53 Partly Cloudy 61 16.1 54 12.2 78 78 SSW 8 13 30.06 1018 10 16 0.00 0.00
10:53 am 10:53 Sunny 66 18.9 54 12.2 65 65 WSW 12 19 30.04 1017 10 16 0.00 0.00
11:53 am 11:53 Mostly Cloudy 69 20.6 54 12.2 59 59 SW 10 17 30.01 1016 10 16 0.00 0.00
12:53 pm 12:53 Mostly Cloudy 70 21.1 53 11.7 55 55 SSW 24 39 30.00 1016 10 16 0.00 0.00
1:53 pm 13:53 Cloudy 70 21.1 53 11.7 55 55 SSW 18 30 29.96 1015 10 16 0.00 0.00
2:53 pm 14:53 Cloudy 69 20.6 52 11.1 55 55 SSW 14 22 29.94 1014 10 16 0.00 0.00
3:53 pm 15:53 Cloudy 69 20.6 51 10.6 53 53 SW 18 30 29.93 1014 10 16 0.00 0.00
4:53 pm 16:53 Partly Cloudy 68 20 51 10.6 55 55 SSW 21 33 29.88 1012 10 16 0.00 0.00
5:53 pm 17:53 Mostly Cloudy 67 19.4 51 10.6 57 57 SSW 15 24 29.86 1011 10 16 0.00 0.00
6:53 pm 18:53 Clear 64 18 43 6 46 46 NW 3 6 30.03 1017 10 16 0.00 0.00
7:53 pm 19:53 Cloudy with Light Rain 64 17.8 54 12.2 70 70 SSW 16 26 29.82 1010 7 11 0.01 0.25
8:22 pm 20:22 Cloudy with Thunderstorms 63 17 55 13 77 77 WSW 5 7 29.77 1008 7 11 0.00 0.00
8:31 pm 20:31 Cloudy with Thunderstorms 61 16.1 57 13.9 87 87 W 22 35 29.85 1011 2 2 0.24 6.10
8:37 pm 20:37 Cloudy with Nearby Thunderstorms 57 13.9 54 12.2 90 90 WSW 7 11 29.88 1012 1 1 0.35 8.89
8:40 pm 20:40 Cloudy with Strong Thunderstorms 57 14 55 13 94 94 SSW 5 7 29.85 1011 1 2 0.00 0.00
8:50 pm 20:50 Cloudy with Thunderstorms 55 13 55 13 100 100 SW 8 13 29.85 1011 3 4 0.00 0.00
8:53 pm 20:53 Cloudy with Nearby Thunderstorms 57 13.9 55 12.8 93 93 WSW 6 9 29.84 1011 3 5 0.42 10.67
9:01 pm 21:01 Cloudy with Nearby Thunderstorms 57 13.9 55 12.8 93 93 WSW 8 13 29.85 1011 3 4 0.04 1.02
9:13 pm 21:13 Cloudy with Rain 57 13.9 56 13.3 96 96 W 9 15 29.85 1011 4 6 0.08 2.03
9:53 pm 21:53 Cloudy with Light Rain 57 13.9 56 13.3 96 96 WNW 13 20 29.87 1012 9 14 0.10 2.54
10:24 pm 22:24 Cloudy with Light Rain 54 12 50 10 88 88 NW 13 20 29.91 1013 10 16 0.00 0.00
10:53 pm 22:53 Cloudy 52 11.1 49 9.4 89 89 WNW 15 24 29.89 1012 10 16 0.01 0.25
11:53 pm 23:53 Cloudy 51 10.6 49 9.4 92 92 WNW 7 11 29.91 1013 10 16 0.00 0.00

Powered by AerisWeather